Inner Beacon Observation History
Time Wind Speed Temp Pressure Rel. Hum Rain
04/08:00am SSW 17-20 kts n/a n/a n/a n/a
04/07:30am SSW 16-19 kts n/a n/a n/a n/a
04/07:00am SSW 17-20 kts n/a n/a n/a n/a
04/06:30am SSW 15-18 kts n/a n/a n/a n/a
04/06:00am SSW 15-17 kts n/a n/a n/a n/a
04/05:30am SSW 13-16 kts n/a n/a n/a n/a
04/05:00am SSW 14-16 kts n/a n/a n/a n/a
04/04:30am SSW 13-15 kts n/a n/a n/a n/a
04/04:00am S 13-15 kts n/a n/a n/a n/a
04/03:30am SSW 14-16 kts n/a n/a n/a n/a
04/03:00am SSW 15-18 kts n/a n/a n/a n/a
04/02:30am SSW 14-15 kts n/a n/a n/a n/a
04/02:00am SSW 14-16 kts n/a n/a n/a n/a
04/01:30am SSW 14-16 kts n/a n/a n/a n/a
04/01:00am S 14-16 kts n/a n/a n/a n/a
04/12:30am S 13-15 kts n/a n/a n/a n/a
04/12:00am SSW 13-16 kts n/a n/a n/a n/a
Time Wind Speed Temp Pressure Rel. Hum Rain
03/11:30pm S 14-16 kts n/a n/a n/a n/a
03/11:00pm S 16-19 kts n/a n/a n/a n/a
03/10:30pm S 14-17 kts n/a n/a n/a n/a
03/10:00pm SSE 15-17 kts n/a n/a n/a n/a
03/09:30pm SSE 16-19 kts n/a n/a n/a n/a
03/09:00pm SSE 16-18 kts n/a n/a n/a n/a
03/08:30pm SSE 13-17 kts n/a n/a n/a n/a
03/08:00pm SE 10-11 kts n/a n/a n/a n/a
03/07:30pm SE 10-14 kts n/a n/a n/a n/a
03/07:00pm SE 12-15 kts n/a n/a n/a n/a
03/06:30pm E 7-9 kts n/a n/a n/a n/a
03/06:00pm E 7-9 kts n/a n/a n/a n/a
03/05:30pm E 9-11 kts n/a n/a n/a n/a
03/05:00pm E 9-10 kts n/a n/a n/a n/a
03/04:30pm E 7-9 kts n/a n/a n/a n/a
03/04:00pm E 7-9 kts n/a n/a n/a n/a
03/03:30pm E 6-7 kts n/a n/a n/a n/a
03/03:00pm E 4-5 kts n/a n/a n/a n/a
03/02:30pm ESE 5-7 kts n/a n/a n/a n/a
03/02:00pm SE 5-6 kts n/a n/a n/a n/a
03/01:30pm S 7-8 kts n/a n/a n/a n/a
03/01:00pm S 8-10 kts n/a n/a n/a n/a
03/12:30pm SSW 8-10 kts n/a n/a n/a n/a
03/12:00pm SSW 8-11 kts n/a n/a n/a n/a
03/11:30am SW 8-10 kts n/a n/a n/a n/a
03/11:00am SW 7-9 kts n/a n/a n/a n/a
03/10:30am SW 7-9 kts n/a n/a n/a n/a
03/10:00am SW 7-9 kts n/a n/a n/a n/a
03/09:30am SW 9-12 kts n/a n/a n/a n/a
03/09:00am SW 11-14 kts n/a n/a n/a n/a
03/08:30am SW 13-16 kts n/a n/a n/a n/a
03/08:00am WSW 10-12 kts n/a n/a n/a n/a
03/07:30am W 10-12 kts n/a n/a n/a n/a
03/07:00am W 9-11 kts n/a n/a n/a n/a
03/06:30am W 9-11 kts n/a n/a n/a n/a
03/06:00am W 8-11 kts n/a n/a n/a n/a
03/05:30am W 10-13 kts n/a n/a n/a n/a
03/05:00am W 7-10 kts n/a n/a n/a n/a
03/04:30am WSW 10-13 kts n/a n/a n/a n/a
03/04:00am WSW 12-15 kts n/a n/a n/a n/a
03/03:30am WSW 11-14 kts n/a n/a n/a n/a
03/03:00am W 9-13 kts n/a n/a n/a n/a
03/02:30am WSW 10-14 kts n/a n/a n/a n/a
03/02:00am WSW 13-17 kts n/a n/a n/a n/a
03/01:30am WSW 19-23 kts n/a n/a n/a n/a
03/01:00am WSW 13-16 kts n/a n/a n/a n/a
03/12:30am WSW 13-16 kts n/a n/a n/a n/a
03/12:00am WSW 12-15 kts n/a n/a n/a n/a
Time Wind Speed Temp Pressure Rel. Hum Rain
02/11:30pm WSW 17-23 kts n/a n/a n/a n/a
02/11:00pm WSW 17-21 kts n/a n/a n/a n/a
02/10:30pm WSW 21-26 kts n/a n/a n/a n/a
02/10:00pm WSW 20-28 kts n/a n/a n/a n/a
02/09:30pm W 22-27 kts n/a n/a n/a n/a
02/09:00pm WSW 22-26 kts n/a n/a n/a n/a
02/08:30pm W 21-26 kts n/a n/a n/a n/a
02/08:00pm W 19-24 kts n/a n/a n/a n/a
02/07:30pm WSW 20-24 kts n/a n/a n/a n/a
02/07:00pm W 17-19 kts n/a n/a n/a n/a
02/06:30pm WSW 14-17 kts n/a n/a n/a n/a
02/06:00pm W 19-23 kts n/a n/a n/a n/a
02/05:30pm WSW 17-21 kts n/a n/a n/a n/a
02/05:00pm W 18-21 kts n/a n/a n/a n/a
02/04:30pm W 20-24 kts n/a n/a n/a n/a
02/04:00pm W 14-19 kts n/a n/a n/a n/a
02/03:30pm W 15-17 kts n/a n/a n/a n/a
02/03:03pm WSW 16-26 kts n/a n/a n/a n/a
02/03:00pm WSW 15-18 kts n/a n/a n/a n/a
02/02:30pm WSW 14-18 kts n/a n/a n/a n/a
02/02:00pm WSW 15-18 kts n/a n/a n/a n/a
02/01:30pm W 18-22 kts n/a n/a n/a n/a
02/01:00pm W 16-20 kts n/a n/a n/a n/a
02/12:30pm WSW 19-25 kts n/a n/a n/a n/a
02/12:00pm WSW 22-27 kts n/a n/a n/a n/a
02/11:30am WSW 24-29 kts n/a n/a n/a n/a
02/11:00am WSW 25-29 kts n/a n/a n/a n/a
02/10:30am WSW 26-31 kts n/a n/a n/a n/a
02/10:00am WSW 24-28 kts n/a n/a n/a n/a
02/09:30am WSW 24-28 kts n/a n/a n/a n/a
02/09:00am W 22-28 kts n/a n/a n/a n/a
02/08:30am W 22-27 kts n/a n/a n/a n/a
02/08:00am W 20-25 kts n/a n/a n/a n/a
02/07:30am WSW 21-26 kts n/a n/a n/a n/a
02/07:00am W 23-30 kts n/a n/a n/a n/a
02/06:30am W 24-32 kts n/a n/a n/a n/a
02/06:00am W 21-27 kts n/a n/a n/a n/a
02/05:30am W 20-24 kts n/a n/a n/a n/a
02/05:00am W 22-26 kts n/a n/a n/a n/a
02/04:30am W 17-21 kts n/a n/a n/a n/a
02/04:00am W 14-18 kts n/a n/a n/a n/a
02/03:30am W 15-18 kts n/a n/a n/a n/a
02/03:00am WSW 14-17 kts n/a n/a n/a n/a
02/02:30am W 10-11 kts n/a n/a n/a n/a
02/02:00am NW 11-13 kts n/a n/a n/a n/a
02/01:30am NNW 12-15 kts n/a n/a n/a n/a
02/01:00am NNW 13-15 kts n/a n/a n/a n/a
02/12:30am NNW 15-17 kts n/a n/a n/a n/a
02/12:00am NNW 17-19 kts n/a n/a n/a n/a